PUA2540 SBKP-GVAC

Flight info

Callsign PUA2540
Flight time 5h 54m
Altitude 39000
Route KONVI UZ23 ANBEX DCT NTL/N0481F410 UN873 POMAT DCT BULVO AMDER1F
Aircraft A359/H-SDE2E3GHIJ3J4J5LM1ORWXY/LB1D1

Departure

Time 2026-04-17 14:13
Airport Viracopos International Airport (SBKP)

Arrival

Time 2026-04-17 20:07
Airport Amílcar Cabral International Airport (GVAC)
Time Latitude Longitude Altitude Speed Heading
2026-04-17 13:17 -23.00685 -47.15234 2155 ft 0 kts 38°
2026-04-17 14:03 -23.00688 -47.15236 2163 ft 3 kts 38°
2026-04-17 14:03 -23.00708 -47.15255 2154 ft 4 kts 39°
2026-04-17 14:03 -23.00728 -47.15273 2154 ft 2 kts 39°
2026-04-17 14:03 -23.00747 -47.15285 2154 ft 4 kts 355°
2026-04-17 14:04 -23.00765 -47.15273 2154 ft 4 kts 305°
2026-04-17 14:04 -23.00773 -47.15261 2154 ft 3 kts 308°
2026-04-17 14:08 -23.00751 -47.15291 2156 ft 11 kts 307°
2026-04-17 14:09 -23.00698 -47.15368 2157 ft 13 kts 312°
2026-04-17 14:09 -23.00617 -47.15368 2154 ft 13 kts 31°
2026-04-17 14:09 -23.00543 -47.15310 2158 ft 14 kts 38°
2026-04-17 14:09 -23.00464 -47.15244 2155 ft 15 kts 38°
2026-04-17 14:10 -23.00381 -47.15173 2154 ft 16 kts 38°
2026-04-17 14:10 -23.00295 -47.15100 2154 ft 16 kts 38°
2026-04-17 14:10 -23.00204 -47.15024 2154 ft 17 kts 38°
2026-04-17 14:10 -23.00109 -47.14944 2154 ft 18 kts 38°
2026-04-17 14:11 -23.00022 -47.14858 2154 ft 17 kts 54°
2026-04-17 14:11 -22.99948 -47.14781 2154 ft 7 kts 40°
2026-04-17 14:11 -22.99943 -47.14777 2155 ft 0 kts 40°
2026-04-17 14:12 -22.99931 -47.14765 2156 ft 11 kts 43°
2026-04-17 14:12 -22.99867 -47.14692 2158 ft 5 kts 61°
2026-04-17 14:12 -22.99873 -47.14675 2154 ft 3 kts 112°
2026-04-17 14:13 -23.00114 -47.14325 2157 ft 86 kts 128°
2026-04-17 14:13 -23.00614 -47.13625 2155 ft 147 kts 128°
2026-04-17 14:13 -23.01326 -47.12625 2480 ft 171 kts 127°
2026-04-17 14:13 -23.01997 -47.11601 3269 ft 164 kts 118°
2026-04-17 14:14 -23.02302 -47.10401 3576 ft 171 kts 86°
2026-04-17 14:14 -23.01937 -47.09159 3725 ft 179 kts 53°
2026-04-17 14:14 -23.01152 -47.08047 4018 ft 193 kts 50°
2026-04-17 14:14 -23.00357 -47.06800 4253 ft 209 kts 55°
2026-04-17 14:15 -22.99611 -47.05370 4425 ft 228 kts 61°
2026-04-17 14:15 -22.98883 -47.03766 4693 ft 246 kts 63°
2026-04-17 14:15 -22.98143 -47.02026 4984 ft 262 kts 64°
2026-04-17 14:15 -22.97383 -47.00173 5318 ft 276 kts 65°
2026-04-17 14:16 -22.96602 -46.98237 5797 ft 283 kts 65°
2026-04-17 14:16 -22.95812 -46.96268 6354 ft 286 kts 66°
2026-04-17 14:16 -22.95008 -46.94281 6896 ft 290 kts 65°
2026-04-17 14:16 -22.93895 -46.92456 7344 ft 293 kts 44°
2026-04-17 14:17 -22.92342 -46.91032 7966 ft 292 kts 36°
2026-04-17 14:17 -22.90708 -46.89712 8555 ft 294 kts 36°
2026-04-17 14:17 -22.89052 -46.88382 8904 ft 298 kts 36°
2026-04-17 14:17 -22.87385 -46.87038 8950 ft 298 kts 36°
2026-04-17 14:18 -22.85722 -46.85690 8967 ft 299 kts 37°
2026-04-17 14:18 -22.84055 -46.84334 8953 ft 300 kts 36°
2026-04-17 14:18 -22.82381 -46.82973 8958 ft 300 kts 36°
2026-04-17 14:18 -22.80713 -46.81617 8956 ft 300 kts 36°
2026-04-17 14:19 -22.79045 -46.80256 8969 ft 301 kts 37°
2026-04-17 14:19 -22.77375 -46.78893 8956 ft 300 kts 36°
2026-04-17 14:19 -22.75704 -46.77534 8970 ft 300 kts 36°
2026-04-17 14:19 -22.74036 -46.76178 8970 ft 300 kts 36°
2026-04-17 14:20 -22.72366 -46.74819 8962 ft 300 kts 36°
2026-04-17 14:20 -22.70696 -46.73464 8956 ft 299 kts 36°
2026-04-17 14:20 -22.69033 -46.72099 8963 ft 300 kts 38°
2026-04-17 14:20 -22.67622 -46.70445 8981 ft 300 kts 57°
2026-04-17 14:21 -22.66565 -46.68493 9335 ft 302 kts 62°
2026-04-17 14:21 -22.65561 -46.66481 9922 ft 304 kts 62°
2026-04-17 14:21 -22.64549 -46.64444 10330 ft 312 kts 62°
2026-04-17 14:21 -22.63575 -46.62290 10523 ft 325 kts 70°
2026-04-17 14:22 -22.63181 -46.59856 10700 ft 335 kts 93°
2026-04-17 14:22 -22.63399 -46.57307 10931 ft 346 kts 99°
2026-04-17 14:22 -22.63737 -46.54690 11177 ft 356 kts 99°
2026-04-17 14:22 -22.63968 -46.52922 11393 ft 360 kts 99°
2026-04-17 14:23 -22.64312 -46.50227 11796 ft 363 kts 99°
2026-04-17 14:23 -22.64762 -46.46615 12370 ft 367 kts 99°
2026-04-17 14:23 -22.64989 -46.44763 12652 ft 369 kts 99°
2026-04-17 14:23 -22.65438 -46.41072 12955 ft 370 kts 99°
2026-04-17 14:24 -22.65663 -46.39239 12978 ft 371 kts 99°
2026-04-17 14:24 -22.66020 -46.36471 12980 ft 371 kts 99°
2026-04-17 14:24 -22.66384 -46.33700 12980 ft 372 kts 99°
2026-04-17 14:24 -22.66749 -46.30919 12978 ft 373 kts 99°
2026-04-17 14:25 -22.67108 -46.28141 12981 ft 373 kts 99°
2026-04-17 14:25 -22.67468 -46.25359 12978 ft 373 kts 99°
2026-04-17 14:25 -22.67815 -46.22577 12983 ft 373 kts 98°
2026-04-17 14:25 -22.67794 -46.19770 12977 ft 375 kts 82°
2026-04-17 14:26 -22.66969 -46.17093 12984 ft 378 kts 62°
2026-04-17 14:26 -22.65364 -46.14839 13278 ft 380 kts 45°
2026-04-17 14:26 -22.63429 -46.12875 13743 ft 382 kts 40°
2026-04-17 14:26 -22.61380 -46.11036 14117 ft 384 kts 38°
2026-04-17 14:27 -22.59272 -46.09242 14481 ft 387 kts 37°
2026-04-17 14:27 -22.57142 -46.07449 14863 ft 388 kts 37°
2026-04-17 14:27 -22.55010 -46.05641 15242 ft 391 kts 37°
2026-04-17 14:27 -22.52875 -46.03804 15626 ft 393 kts 38°
2026-04-17 14:28 -22.50739 -46.01944 15980 ft 396 kts 38°
2026-04-17 14:28 -22.48596 -46.00063 16335 ft 398 kts 38°
2026-04-17 14:28 -22.46445 -45.98167 16692 ft 400 kts 38°
2026-04-17 14:28 -22.44282 -45.96258 17064 ft 402 kts 38°
2026-04-17 14:29 -22.42112 -45.94343 17443 ft 404 kts 38°
2026-04-17 14:29 -22.39926 -45.92415 17798 ft 406 kts 37°
2026-04-17 14:29 -22.37729 -45.90478 18144 ft 409 kts 37°
2026-04-17 14:29 -22.35518 -45.88532 18466 ft 411 kts 37°
2026-04-17 14:30 -22.33297 -45.86578 18748 ft 413 kts 37°
2026-04-17 14:30 -22.31062 -45.84614 19041 ft 415 kts 37°
2026-04-17 14:30 -22.28815 -45.82642 19326 ft 417 kts 37°
2026-04-17 14:30 -22.26558 -45.80666 19620 ft 419 kts 37°
2026-04-17 14:31 -22.24275 -45.78686 19923 ft 421 kts 37°
2026-04-17 14:31 -22.21979 -45.76706 20202 ft 423 kts 37°
2026-04-17 14:31 -22.19676 -45.74721 20490 ft 425 kts 37°
2026-04-17 14:31 -22.17358 -45.72725 20759 ft 427 kts 37°
2026-04-17 14:32 -22.15030 -45.70719 21049 ft 429 kts 37°
2026-04-17 14:32 -22.12694 -45.68704 21316 ft 431 kts 37°
2026-04-17 14:32 -22.10345 -45.66679 21587 ft 433 kts 37°
2026-04-17 14:32 -22.07987 -45.64645 21838 ft 435 kts 37°
2026-04-17 14:33 -22.05622 -45.62606 22104 ft 437 kts 37°
2026-04-17 14:33 -22.03243 -45.60555 22362 ft 439 kts 37°
2026-04-17 14:33 -22.00853 -45.58495 22606 ft 441 kts 37°
2026-04-17 14:33 -21.98452 -45.56428 22850 ft 443 kts 37°
2026-04-17 14:34 -21.96039 -45.54352 23106 ft 445 kts 37°
2026-04-17 14:34 -21.93618 -45.52269 23359 ft 446 kts 37°
2026-04-17 14:34 -21.91186 -45.50177 23570 ft 448 kts 37°
2026-04-17 14:34 -21.88745 -45.48079 23768 ft 450 kts 37°
2026-04-17 14:35 -21.86294 -45.45975 23963 ft 452 kts 37°
2026-04-17 14:35 -21.83835 -45.43864 24150 ft 453 kts 37°
2026-04-17 14:35 -21.81364 -45.41744 24350 ft 455 kts 37°
2026-04-17 14:35 -21.78889 -45.39621 24545 ft 456 kts 37°
2026-04-17 14:36 -21.76403 -45.37490 24723 ft 458 kts 37°
2026-04-17 14:36 -21.73910 -45.35354 24930 ft 459 kts 37°
2026-04-17 14:36 -21.71406 -45.33209 25098 ft 460 kts 37°
2026-04-17 14:36 -21.68899 -45.31064 25297 ft 462 kts 36°
2026-04-17 14:37 -21.66384 -45.28912 25488 ft 463 kts 36°
2026-04-17 14:37 -21.63857 -45.26750 25671 ft 465 kts 36°
2026-04-17 14:37 -21.61321 -45.24582 25871 ft 466 kts 36°
2026-04-17 14:37 -21.58780 -45.22410 26062 ft 467 kts 36°
2026-04-17 14:38 -21.56230 -45.20232 26246 ft 469 kts 36°
2026-04-17 14:38 -21.53674 -45.18049 26452 ft 470 kts 36°
2026-04-17 14:38 -21.51109 -45.15859 26642 ft 472 kts 36°
2026-04-17 14:38 -21.48534 -45.13663 26841 ft 473 kts 36°
2026-04-17 14:39 -21.45951 -45.11460 27043 ft 475 kts 36°
2026-04-17 14:39 -21.43362 -45.09253 27246 ft 476 kts 35°
2026-04-17 14:39 -21.40760 -45.07036 27424 ft 478 kts 35°
2026-04-17 14:39 -21.38152 -45.04818 27635 ft 479 kts 35°
2026-04-17 14:40 -21.35536 -45.02592 27833 ft 481 kts 35°
2026-04-17 14:40 -21.32910 -45.00359 28043 ft 482 kts 35°
2026-04-17 14:40 -21.30278 -44.98121 28240 ft 484 kts 35°
2026-04-17 14:40 -21.27633 -44.95873 28452 ft 486 kts 35°
2026-04-17 14:41 -21.24984 -44.93623 28665 ft 487 kts 34°
2026-04-17 14:41 -21.22321 -44.91362 28877 ft 489 kts 34°
2026-04-17 14:41 -21.19653 -44.89097 29082 ft 490 kts 34°
2026-04-17 14:41 -21.16972 -44.86826 29274 ft 492 kts 34°
2026-04-17 14:42 -21.14284 -44.84550 29515 ft 493 kts 34°
2026-04-17 14:42 -21.11585 -44.82263 29713 ft 495 kts 34°
2026-04-17 14:42 -21.08882 -44.79972 29915 ft 497 kts 34°
2026-04-17 14:42 -21.06199 -44.77699 30119 ft 499 kts 34°
2026-04-17 14:43 -21.03469 -44.75404 30297 ft 500 kts 33°
2026-04-17 14:43 -21.00669 -44.73191 30477 ft 501 kts 31°
2026-04-17 14:43 -20.97820 -44.71038 30667 ft 502 kts 30°
2026-04-17 14:43 -20.94951 -44.68900 30842 ft 504 kts 30°
2026-04-17 14:44 -20.92069 -44.66750 31054 ft 506 kts 31°
2026-04-17 14:44 -20.89181 -44.64582 31240 ft 508 kts 31°
2026-04-17 14:44 -20.86294 -44.62402 31435 ft 510 kts 31°
2026-04-17 14:44 -20.83397 -44.60202 31616 ft 512 kts 31°
2026-04-17 14:45 -20.80487 -44.57987 31806 ft 514 kts 31°
2026-04-17 14:45 -20.77576 -44.55770 32003 ft 514 kts 31°
2026-04-17 14:45 -20.74660 -44.53547 32187 ft 516 kts 31°
2026-04-17 14:45 -20.71732 -44.51314 32348 ft 518 kts 31°
2026-04-17 14:46 -20.68793 -44.49073 32509 ft 520 kts 31°
2026-04-17 14:46 -20.65842 -44.46825 32700 ft 521 kts 31°
2026-04-17 14:46 -20.62887 -44.44576 32845 ft 523 kts 31°
2026-04-17 14:46 -20.59914 -44.42315 32991 ft 524 kts 31°
2026-04-17 14:47 -20.56941 -44.40053 33191 ft 526 kts 31°
2026-04-17 14:47 -20.53961 -44.37789 33369 ft 527 kts 31°
2026-04-17 14:47 -20.50970 -44.35516 33522 ft 528 kts 31°
2026-04-17 14:47 -20.47969 -44.33240 33661 ft 530 kts 31°
2026-04-17 14:48 -20.44960 -44.30959 33829 ft 531 kts 31°
2026-04-17 14:48 -20.41944 -44.28665 33959 ft 533 kts 32°
2026-04-17 14:48 -20.38950 -44.26322 34066 ft 536 kts 32°
2026-04-17 14:48 -20.35962 -44.23941 34219 ft 537 kts 33°
2026-04-17 14:49 -20.32977 -44.21546 34385 ft 537 kts 33°
2026-04-17 14:49 -20.29989 -44.19153 34563 ft 537 kts 33°
2026-04-17 14:49 -20.27034 -44.16796 34728 ft 538 kts 32°
2026-04-17 14:49 -20.24026 -44.14404 34882 ft 539 kts 32°
2026-04-17 14:50 -20.21018 -44.12018 35022 ft 540 kts 32°
2026-04-17 14:50 -20.17998 -44.09626 35135 ft 542 kts 32°
2026-04-17 14:50 -20.14969 -44.07231 35304 ft 543 kts 32°
2026-04-17 14:50 -20.11941 -44.04840 35528 ft 543 kts 32°
2026-04-17 14:51 -20.08902 -44.02441 35716 ft 544 kts 32°
2026-04-17 14:51 -20.05868 -44.00050 35907 ft 544 kts 32°
2026-04-17 14:51 -20.02821 -43.97651 36066 ft 545 kts 32°
2026-04-17 14:51 -19.99774 -43.95253 36260 ft 545 kts 32°
2026-04-17 14:52 -19.96728 -43.92856 36461 ft 545 kts 32°
2026-04-17 14:52 -19.93674 -43.90456 36623 ft 546 kts 32°
2026-04-17 14:52 -19.90617 -43.88056 36791 ft 547 kts 32°
2026-04-17 14:52 -19.87560 -43.85656 36967 ft 546 kts 32°
2026-04-17 14:53 -19.84498 -43.83254 37104 ft 547 kts 32°
2026-04-17 14:53 -19.81399 -43.80919 37279 ft 546 kts 31°
2026-04-17 14:53 -19.78267 -43.78653 37502 ft 545 kts 30°
2026-04-17 14:53 -19.75119 -43.76412 37666 ft 545 kts 30°
2026-04-17 14:54 -19.71964 -43.74169 37816 ft 546 kts 30°
2026-04-17 14:54 -19.68812 -43.71921 37964 ft 546 kts 30°
2026-04-17 14:54 -19.65666 -43.69666 38167 ft 547 kts 30°
2026-04-17 14:54 -19.62508 -43.67393 38329 ft 547 kts 30°
2026-04-17 14:55 -19.59383 -43.65136 38658 ft 543 kts 30°
2026-04-17 14:55 -19.56260 -43.62879 38840 ft 542 kts 30°
2026-04-17 14:55 -19.50006 -43.58361 38967 ft 546 kts 30°
2026-04-17 14:56 -19.43721 -43.53826 38969 ft 545 kts 30°
2026-04-17 14:56 -19.37476 -43.49327 38972 ft 540 kts 31°
2026-04-17 14:57 -19.31265 -43.44855 38972 ft 539 kts 31°
2026-04-17 14:57 -19.25165 -43.40229 38969 ft 540 kts 34°
2026-04-17 14:58 -19.19196 -43.35387 38962 ft 540 kts 35°
2026-04-17 14:58 -19.13229 -43.30565 38967 ft 539 kts 34°
2026-04-17 14:59 -19.07238 -43.25789 38963 ft 539 kts 34°
2026-04-17 14:59 -19.01236 -43.21036 38965 ft 539 kts 34°
2026-04-17 15:00 -18.95231 -43.16287 38967 ft 539 kts 34°
2026-04-17 15:00 -18.89221 -43.11537 38966 ft 539 kts 34°
2026-04-17 15:01 -18.83216 -43.06796 38964 ft 539 kts 34°
2026-04-17 15:01 -18.77259 -43.02095 38964 ft 538 kts 34°
2026-04-17 15:02 -18.71263 -42.97360 38965 ft 539 kts 34°
2026-04-17 15:02 -18.65265 -42.92623 38966 ft 539 kts 34°
2026-04-17 15:03 -18.63280 -42.91056 38963 ft 539 kts 34°
2026-04-17 15:03 -18.53686 -42.83494 38964 ft 537 kts 34°
2026-04-17 15:04 -18.47696 -42.78788 38960 ft 537 kts 34°
2026-04-17 15:04 -18.41705 -42.74081 38959 ft 537 kts 34°
2026-04-17 15:05 -18.35723 -42.69385 38960 ft 536 kts 34°
2026-04-17 15:05 -18.29748 -42.64701 38961 ft 535 kts 34°
2026-04-17 15:06 -18.23775 -42.60022 38959 ft 535 kts 34°
2026-04-17 15:06 -18.17799 -42.55345 38955 ft 535 kts 34°
2026-04-17 15:07 -18.11836 -42.50683 38953 ft 534 kts 34°
2026-04-17 15:07 -18.05877 -42.46028 38973 ft 534 kts 34°
2026-04-17 15:08 -17.99923 -42.41379 38950 ft 533 kts 34°
2026-04-17 15:08 -17.93974 -42.36739 38952 ft 531 kts 34°
2026-04-17 15:09 -17.88081 -42.32147 38950 ft 531 kts 34°
2026-04-17 15:09 -17.82146 -42.27527 38956 ft 531 kts 34°
2026-04-17 15:10 -17.76212 -42.22911 38965 ft 530 kts 34°
2026-04-17 15:11 -17.67332 -42.16010 38967 ft 529 kts 34°
2026-04-17 15:11 -17.61416 -42.11417 38970 ft 529 kts 34°
2026-04-17 15:12 -17.55504 -42.06832 38963 ft 528 kts 35°
2026-04-17 15:12 -17.49606 -42.02261 38961 ft 526 kts 34°
2026-04-17 15:13 -17.43720 -41.97702 38960 ft 526 kts 34°
2026-04-17 15:13 -17.37834 -41.93141 38959 ft 526 kts 34°
2026-04-17 15:14 -17.31954 -41.88588 38955 ft 525 kts 35°
2026-04-17 15:14 -17.26084 -41.84046 38961 ft 524 kts 35°
2026-04-17 15:15 -17.20225 -41.79517 38957 ft 524 kts 34°
2026-04-17 15:15 -17.14361 -41.74989 38958 ft 524 kts 34°
2026-04-17 15:16 -17.08505 -41.70470 38956 ft 523 kts 34°
2026-04-17 15:16 -17.02649 -41.65955 38951 ft 523 kts 34°
2026-04-17 15:17 -16.96801 -41.61449 38951 ft 523 kts 34°
2026-04-17 15:17 -16.90944 -41.56940 38949 ft 523 kts 34°
2026-04-17 15:18 -16.85093 -41.52440 38945 ft 522 kts 34°
2026-04-17 15:18 -16.79240 -41.47941 38948 ft 522 kts 34°
2026-04-17 15:19 -16.73390 -41.43448 38947 ft 522 kts 34°
2026-04-17 15:19 -16.67539 -41.38957 38942 ft 521 kts 34°
2026-04-17 15:20 -16.61733 -41.34456 38952 ft 519 kts 35°
2026-04-17 15:20 -16.55950 -41.29955 38942 ft 519 kts 35°
2026-04-17 15:21 -16.50164 -41.25464 38941 ft 519 kts 34°
2026-04-17 15:21 -16.44374 -41.20982 38939 ft 518 kts 35°
2026-04-17 15:22 -16.38599 -41.16513 38943 ft 517 kts 35°
2026-04-17 15:22 -16.32822 -41.12047 38938 ft 517 kts 35°
2026-04-17 15:23 -16.27048 -41.07587 38942 ft 517 kts 34°
2026-04-17 15:23 -16.21278 -41.03133 38935 ft 515 kts 35°
2026-04-17 15:24 -16.15528 -40.98697 38939 ft 514 kts 35°
2026-04-17 15:24 -16.10751 -40.95015 38941 ft 514 kts 35°
2026-04-17 15:25 -16.05002 -40.90586 38939 ft 514 kts 34°
2026-04-17 15:25 -15.99252 -40.86160 38940 ft 514 kts 34°
2026-04-17 15:26 -15.93498 -40.81735 38939 ft 514 kts 34°
2026-04-17 15:26 -15.87749 -40.77316 38938 ft 514 kts 34°
2026-04-17 15:27 -15.81993 -40.72895 38931 ft 515 kts 34°
2026-04-17 15:27 -15.76236 -40.68477 38933 ft 514 kts 34°
2026-04-17 15:28 -15.70526 -40.64099 38931 ft 514 kts 34°
2026-04-17 15:28 -15.64778 -40.59692 38930 ft 513 kts 34°
2026-04-17 15:29 -15.59030 -40.55290 38927 ft 514 kts 34°
2026-04-17 15:29 -15.53285 -40.50892 38926 ft 512 kts 35°
2026-04-17 15:30 -15.47553 -40.46508 38925 ft 511 kts 35°
2026-04-17 15:30 -15.41824 -40.42130 38921 ft 511 kts 35°
2026-04-17 15:31 -15.36098 -40.37758 38918 ft 511 kts 35°
2026-04-17 15:31 -15.30376 -40.33391 38916 ft 510 kts 35°
2026-04-17 15:32 -15.24665 -40.29035 38916 ft 510 kts 35°
2026-04-17 15:32 -15.18957 -40.24687 38915 ft 510 kts 35°
2026-04-17 15:33 -15.13241 -40.20334 38915 ft 510 kts 35°
2026-04-17 15:33 -15.07526 -40.15987 38916 ft 509 kts 35°
2026-04-17 15:34 -15.01817 -40.11646 38913 ft 509 kts 35°
2026-04-17 15:34 -14.96110 -40.07308 38918 ft 509 kts 35°
2026-04-17 15:35 -14.90396 -40.02970 38906 ft 509 kts 35°
2026-04-17 15:35 -14.84684 -39.98636 38910 ft 509 kts 35°
2026-04-17 15:36 -14.78973 -39.94306 38918 ft 509 kts 35°
2026-04-17 15:36 -14.73267 -39.89981 38908 ft 509 kts 35°
2026-04-17 15:37 -14.67557 -39.85657 38906 ft 509 kts 35°
2026-04-17 15:37 -14.61847 -39.81336 38903 ft 509 kts 35°
2026-04-17 15:38 -14.56135 -39.77017 38901 ft 509 kts 35°
2026-04-17 15:38 -14.50420 -39.72698 38898 ft 509 kts 35°
2026-04-17 15:39 -14.44708 -39.68382 38897 ft 509 kts 35°
2026-04-17 15:39 -14.38992 -39.64068 38897 ft 509 kts 36°
2026-04-17 15:40 -14.33284 -39.59763 38894 ft 509 kts 35°
2026-04-17 15:40 -14.27563 -39.55457 38895 ft 509 kts 35°
2026-04-17 15:41 -14.21835 -39.51166 38896 ft 509 kts 35°
2026-04-17 15:41 -14.16101 -39.46874 38896 ft 509 kts 35°
2026-04-17 15:42 -14.10363 -39.42582 38898 ft 509 kts 36°
2026-04-17 15:42 -14.04633 -39.38295 38892 ft 509 kts 36°
2026-04-17 15:43 -13.98903 -39.34010 38894 ft 509 kts 36°
2026-04-17 15:43 -13.93167 -39.29724 38891 ft 509 kts 36°
2026-04-17 15:44 -13.87438 -39.25446 38888 ft 509 kts 36°
2026-04-17 15:44 -13.81697 -39.21162 38896 ft 510 kts 36°
2026-04-17 15:45 -13.75955 -39.16879 38892 ft 510 kts 36°
2026-04-17 15:45 -13.70215 -39.12602 38892 ft 510 kts 36°
2026-04-17 15:46 -13.64475 -39.08326 38892 ft 509 kts 36°
2026-04-17 15:46 -13.58774 -39.04083 38890 ft 509 kts 36°
2026-04-17 15:47 -13.53029 -38.99826 38889 ft 509 kts 36°
2026-04-17 15:47 -13.47281 -38.95573 38889 ft 509 kts 36°
2026-04-17 15:48 -13.41534 -38.91323 38888 ft 509 kts 36°
2026-04-17 15:48 -13.35783 -38.87072 38890 ft 510 kts 36°
2026-04-17 15:49 -13.30027 -38.82819 38887 ft 510 kts 36°
2026-04-17 15:49 -13.24268 -38.78566 38887 ft 510 kts 36°
2026-04-17 15:50 -13.18514 -38.74320 38889 ft 510 kts 36°
2026-04-17 15:50 -13.12755 -38.70073 38888 ft 510 kts 37°
2026-04-17 15:51 -13.06983 -38.65818 38892 ft 511 kts 37°
2026-04-17 15:51 -13.01211 -38.61567 38885 ft 511 kts 37°
2026-04-17 15:52 -12.95434 -38.57313 38884 ft 511 kts 37°
2026-04-17 15:52 -12.89657 -38.53063 38882 ft 511 kts 37°
2026-04-17 15:53 -12.83873 -38.48810 38883 ft 512 kts 37°
2026-04-17 15:53 -12.78094 -38.44562 38884 ft 512 kts 37°
2026-04-17 15:54 -12.72305 -38.40310 38902 ft 511 kts 37°
2026-04-17 15:54 -12.66524 -38.36066 38887 ft 511 kts 37°
2026-04-17 15:55 -12.60737 -38.31821 38882 ft 512 kts 37°
2026-04-17 15:55 -12.54943 -38.27572 38881 ft 512 kts 37°
2026-04-17 15:56 -12.49152 -38.23328 38879 ft 512 kts 37°
2026-04-17 15:56 -12.43389 -38.19107 38882 ft 512 kts 37°
2026-04-17 15:57 -12.37599 -38.14869 38879 ft 511 kts 37°
2026-04-17 15:57 -12.31818 -38.10640 38877 ft 511 kts 37°
2026-04-17 15:58 -12.26036 -38.06416 38877 ft 511 kts 37°
2026-04-17 15:58 -12.20258 -38.02198 38876 ft 511 kts 37°
2026-04-17 15:59 -12.14474 -37.97975 38876 ft 511 kts 37°
2026-04-17 15:59 -12.08694 -37.93758 38874 ft 510 kts 37°
2026-04-17 16:00 -12.02921 -37.89552 38879 ft 509 kts 37°
2026-04-17 16:00 -11.97144 -37.85355 38883 ft 510 kts 37°
2026-04-17 16:01 -11.91378 -37.81150 38880 ft 510 kts 37°
2026-04-17 16:01 -11.85610 -37.76952 38875 ft 509 kts 37°
2026-04-17 16:02 -11.79842 -37.72770 38876 ft 508 kts 37°
2026-04-17 16:02 -11.74078 -37.68594 38874 ft 508 kts 37°
2026-04-17 16:03 -11.68323 -37.64427 38878 ft 507 kts 37°
2026-04-17 16:03 -11.62567 -37.60262 38879 ft 507 kts 37°
2026-04-17 16:04 -11.56817 -37.56103 38874 ft 506 kts 37°
2026-04-17 16:04 -11.51075 -37.51953 38872 ft 506 kts 37°
2026-04-17 16:05 -11.45332 -37.47802 38875 ft 506 kts 37°
2026-04-17 16:05 -11.39597 -37.43659 38875 ft 505 kts 37°
2026-04-17 16:06 -11.33874 -37.39528 38871 ft 502 kts 37°
2026-04-17 16:06 -11.28189 -37.35428 38868 ft 500 kts 37°
2026-04-17 16:07 -11.22518 -37.31338 38868 ft 499 kts 37°
2026-04-17 16:07 -11.16844 -37.27248 38873 ft 499 kts 37°
2026-04-17 16:08 -11.11170 -37.23160 38881 ft 499 kts 37°
2026-04-17 16:08 -11.05520 -37.19092 38881 ft 495 kts 37°
2026-04-17 16:09 -11.00855 -37.15735 38884 ft 494 kts 37°
2026-04-17 16:09 -10.95246 -37.11712 38886 ft 493 kts 37°
2026-04-17 16:10 -10.89631 -37.07688 38886 ft 493 kts 37°
2026-04-17 16:10 -10.84018 -37.03667 38877 ft 493 kts 37°
2026-04-17 16:11 -10.78413 -36.99655 38877 ft 492 kts 37°
2026-04-17 16:11 -10.72815 -36.95648 38874 ft 492 kts 37°
2026-04-17 16:12 -10.67217 -36.91644 38863 ft 492 kts 37°
2026-04-17 16:12 -10.61623 -36.87645 38867 ft 492 kts 37°
2026-04-17 16:13 -10.56027 -36.83646 38869 ft 492 kts 37°
2026-04-17 16:13 -10.50434 -36.79652 38862 ft 491 kts 37°
2026-04-17 16:14 -10.42051 -36.73666 38866 ft 491 kts 37°
2026-04-17 16:14 -10.36465 -36.69680 38861 ft 491 kts 37°
2026-04-17 16:15 -10.30877 -36.65695 38861 ft 490 kts 37°
2026-04-17 16:15 -10.25305 -36.61724 38854 ft 488 kts 36°
2026-04-17 16:16 -10.19753 -36.57768 38850 ft 487 kts 36°
2026-04-17 16:16 -10.14198 -36.53812 38850 ft 487 kts 36°
2026-04-17 16:17 -10.08639 -36.49872 38851 ft 487 kts 37°
2026-04-17 16:17 -10.03078 -36.45931 38850 ft 487 kts 36°
2026-04-17 16:18 -9.97512 -36.41986 38857 ft 489 kts 35°
2026-04-17 16:18 -9.91932 -36.38036 38851 ft 489 kts 35°
2026-04-17 16:19 -9.86345 -36.34082 38854 ft 489 kts 35°
2026-04-17 16:19 -9.80761 -36.30132 38854 ft 489 kts 35°
2026-04-17 16:20 -9.75175 -36.26181 38860 ft 489 kts 33°
2026-04-17 16:20 -9.69583 -36.22228 38861 ft 490 kts 33°
2026-04-17 16:21 -9.63985 -36.18273 38860 ft 491 kts 33°
2026-04-17 16:21 -9.58422 -36.14344 38858 ft 491 kts 33°
2026-04-17 16:22 -9.52820 -36.10388 38867 ft 491 kts 33°
2026-04-17 16:22 -9.47222 -36.06438 38875 ft 491 kts 33°
2026-04-17 16:23 -9.41614 -36.02481 38872 ft 491 kts 33°
2026-04-17 16:23 -9.36011 -35.98530 38869 ft 491 kts 33°
2026-04-17 16:24 -9.30405 -35.94579 38867 ft 491 kts 33°
2026-04-17 16:24 -9.24791 -35.90623 38865 ft 491 kts 33°
2026-04-17 16:25 -9.19183 -35.86673 38851 ft 491 kts 33°
2026-04-17 16:25 -9.13569 -35.82719 38856 ft 491 kts 33°
2026-04-17 16:26 -9.07955 -35.78770 38855 ft 491 kts 33°
2026-04-17 16:26 -9.02098 -35.75264 38845 ft 487 kts 20°
2026-04-17 16:27 -8.95615 -35.73450 38854 ft 483 kts
2026-04-17 16:27 -8.88988 -35.72327 38854 ft 483 kts
2026-04-17 16:28 -8.82350 -35.71312 38853 ft 482 kts
2026-04-17 16:28 -8.75716 -35.70282 38855 ft 482 kts
2026-04-17 16:29 -8.69086 -35.69227 38855 ft 482 kts
2026-04-17 16:29 -8.62455 -35.68162 38856 ft 482 kts
2026-04-17 16:30 -8.55835 -35.67097 38856 ft 481 kts
2026-04-17 16:30 -8.49221 -35.66036 38857 ft 481 kts
2026-04-17 16:31 -8.42610 -35.64977 38854 ft 481 kts
2026-04-17 16:31 -8.36039 -35.63925 38851 ft 481 kts
2026-04-17 16:32 -8.29430 -35.62866 38850 ft 481 kts
2026-04-17 16:32 -8.22829 -35.61809 38844 ft 480 kts
2026-04-17 16:33 -8.16234 -35.60754 38848 ft 480 kts
2026-04-17 16:33 -8.09639 -35.59699 38843 ft 480 kts
2026-04-17 16:34 -8.03046 -35.58644 38843 ft 480 kts
2026-04-17 16:34 -7.96459 -35.57590 38840 ft 479 kts
2026-04-17 16:35 -7.89884 -35.56539 38833 ft 478 kts
2026-04-17 16:35 -7.83306 -35.55488 38836 ft 478 kts
2026-04-17 16:36 -7.76736 -35.54439 38833 ft 478 kts
2026-04-17 16:36 -7.70168 -35.53390 38829 ft 478 kts
2026-04-17 16:37 -7.63607 -35.52342 38832 ft 477 kts
2026-04-17 16:37 -7.57048 -35.51296 38830 ft 477 kts
2026-04-17 16:38 -7.50501 -35.50251 38827 ft 477 kts
2026-04-17 16:38 -7.43945 -35.49206 38826 ft 477 kts
2026-04-17 16:39 -7.37385 -35.48159 38826 ft 477 kts
2026-04-17 16:39 -7.30821 -35.47113 38827 ft 477 kts
2026-04-17 16:40 -7.24262 -35.46068 38823 ft 477 kts
2026-04-17 16:40 -7.17704 -35.45023 38818 ft 477 kts
2026-04-17 16:41 -7.11146 -35.43979 38819 ft 477 kts
2026-04-17 16:41 -7.04596 -35.42936 38821 ft 476 kts
2026-04-17 16:42 -6.98050 -35.41894 38820 ft 476 kts
2026-04-17 16:42 -6.91503 -35.40852 38820 ft 476 kts
2026-04-17 16:43 -6.84962 -35.39811 38817 ft 476 kts
2026-04-17 16:43 -6.78418 -35.38771 38817 ft 477 kts
2026-04-17 16:44 -6.71860 -35.37729 38818 ft 477 kts
2026-04-17 16:44 -6.65305 -35.36687 38817 ft 477 kts
2026-04-17 16:45 -6.58740 -35.35644 38818 ft 477 kts
2026-04-17 16:45 -6.52183 -35.34602 38815 ft 477 kts
2026-04-17 16:46 -6.45630 -35.33561 38814 ft 477 kts
2026-04-17 16:46 -6.39070 -35.32520 38815 ft 477 kts
2026-04-17 16:47 -6.32520 -35.31480 38815 ft 477 kts
2026-04-17 16:47 -6.25969 -35.30440 38823 ft 477 kts
2026-04-17 16:48 -6.19395 -35.29399 39021 ft 480 kts
2026-04-17 16:48 -6.12781 -35.28350 39308 ft 481 kts
2026-04-17 16:49 -6.09477 -35.27826 39507 ft 480 kts
2026-04-17 16:49 -6.06179 -35.27302 39689 ft 480 kts
2026-04-17 16:49 -6.02887 -35.26779 39854 ft 479 kts
2026-04-17 16:49 -5.99591 -35.26257 40029 ft 479 kts
2026-04-17 16:50 -5.96323 -35.25739 40188 ft 478 kts
2026-04-17 16:50 -5.93039 -35.25124 40327 ft 480 kts 12°
2026-04-17 16:50 -5.89853 -35.24110 40462 ft 481 kts 20°
2026-04-17 16:50 -5.86813 -35.22711 40685 ft 481 kts 24°
2026-04-17 16:51 -5.81861 -35.20158 40851 ft 482 kts 26°
2026-04-17 16:51 -5.75934 -35.16953 40846 ft 484 kts 26°
2026-04-17 16:52 -5.70008 -35.13743 40835 ft 484 kts 26°
2026-04-17 16:52 -5.64075 -35.10556 40826 ft 484 kts 26°
2026-04-17 16:53 -5.58129 -35.07376 40815 ft 484 kts 26°
2026-04-17 16:53 -5.52190 -35.04203 40815 ft 483 kts 26°
2026-04-17 16:54 -5.46254 -35.01032 40815 ft 483 kts 26°
2026-04-17 16:54 -5.40317 -34.97861 40815 ft 483 kts 26°
2026-04-17 16:55 -5.34379 -34.94689 40818 ft 483 kts 26°
2026-04-17 16:55 -5.28447 -34.91522 40817 ft 483 kts 26°
2026-04-17 16:56 -5.22554 -34.88375 40815 ft 482 kts 26°
2026-04-17 16:56 -5.16630 -34.85212 40815 ft 482 kts 26°
2026-04-17 16:57 -5.10708 -34.82051 40815 ft 482 kts 26°
2026-04-17 16:57 -5.04783 -34.78889 40815 ft 482 kts 26°
2026-04-17 16:58 -4.98858 -34.75729 40810 ft 482 kts 26°
2026-04-17 16:58 -4.92940 -34.72572 40815 ft 481 kts 26°
2026-04-17 16:59 -4.87023 -34.69416 40812 ft 482 kts 26°
2026-04-17 16:59 -4.81103 -34.66260 40813 ft 482 kts 26°
2026-04-17 17:00 -4.75176 -34.63101 40815 ft 482 kts 26°
2026-04-17 17:00 -4.69254 -34.59944 40813 ft 482 kts 26°
2026-04-17 17:01 -4.63334 -34.56790 40813 ft 482 kts 26°
2026-04-17 17:01 -4.57417 -34.53638 40812 ft 482 kts 26°
2026-04-17 17:02 -4.51488 -34.50479 40812 ft 482 kts 26°
2026-04-17 17:02 -4.45567 -34.47326 40810 ft 482 kts 26°
2026-04-17 17:03 -4.39640 -34.44170 40811 ft 483 kts 26°
2026-04-17 17:03 -4.33714 -34.41015 40812 ft 482 kts 26°
2026-04-17 17:04 -4.27796 -34.37865 40812 ft 481 kts 26°
2026-04-17 17:04 -4.21880 -34.34717 40812 ft 481 kts 26°
2026-04-17 17:05 -4.15962 -34.31568 40813 ft 481 kts 26°
2026-04-17 17:05 -4.10048 -34.28422 40812 ft 481 kts 26°
2026-04-17 17:06 -4.04129 -34.25274 40813 ft 482 kts 26°
2026-04-17 17:06 -3.98203 -34.22123 40812 ft 482 kts 26°
2026-04-17 17:07 -3.92275 -34.18970 40812 ft 484 kts 26°
2026-04-17 17:07 -3.86324 -34.15806 40813 ft 484 kts 26°
2026-04-17 17:08 -3.80373 -34.12643 40812 ft 484 kts 26°
2026-04-17 17:08 -3.74417 -34.09477 40813 ft 485 kts 26°
2026-04-17 17:09 -3.68454 -34.06309 40812 ft 485 kts 26°
2026-04-17 17:09 -3.62486 -34.03137 40812 ft 486 kts 26°
2026-04-17 17:10 -3.56517 -33.99968 40813 ft 485 kts 26°
2026-04-17 17:10 -3.50547 -33.96808 40813 ft 485 kts 26°
2026-04-17 17:11 -3.44573 -33.93646 40813 ft 485 kts 26°
2026-04-17 17:11 -3.38599 -33.90482 40812 ft 485 kts 26°
2026-04-17 17:12 -3.32631 -33.87321 40810 ft 485 kts 26°
2026-04-17 17:12 -3.26663 -33.84160 40810 ft 485 kts 26°
2026-04-17 17:13 -3.20693 -33.80998 40812 ft 485 kts 26°
2026-04-17 17:13 -3.14723 -33.77836 40811 ft 485 kts 26°
2026-04-17 17:14 -3.08792 -33.74696 40812 ft 485 kts 26°
2026-04-17 17:15 -2.99839 -33.69958 40818 ft 485 kts 26°
2026-04-17 17:15 -2.93874 -33.66801 40812 ft 485 kts 26°
2026-04-17 17:16 -2.87899 -33.63639 40813 ft 485 kts 26°
2026-04-17 17:16 -2.81933 -33.60482 40814 ft 485 kts 26°
2026-04-17 17:17 -2.75968 -33.57326 40812 ft 485 kts 26°
2026-04-17 17:17 -2.70002 -33.54170 40814 ft 485 kts 26°
2026-04-17 17:18 -2.64036 -33.51014 40815 ft 485 kts 26°
2026-04-17 17:18 -2.58070 -33.47858 40814 ft 485 kts 26°
2026-04-17 17:19 -2.52116 -33.44693 40814 ft 485 kts 26°
2026-04-17 17:19 -2.46155 -33.41525 40811 ft 485 kts 26°
2026-04-17 17:20 -2.40201 -33.38364 40811 ft 484 kts 26°
2026-04-17 17:20 -2.34249 -33.35206 40811 ft 484 kts 26°
2026-04-17 17:21 -2.28296 -33.32048 40813 ft 484 kts 26°
2026-04-17 17:21 -2.22346 -33.28891 40812 ft 484 kts 26°
2026-04-17 17:22 -2.16396 -33.25735 40815 ft 484 kts 26°
2026-04-17 17:22 -2.10444 -33.22578 40815 ft 484 kts 26°
2026-04-17 17:23 -2.04497 -33.19424 40812 ft 484 kts 26°
2026-04-17 17:23 -1.98552 -33.16271 40810 ft 484 kts 26°
2026-04-17 17:24 -1.92602 -33.13116 40810 ft 484 kts 26°
2026-04-17 17:24 -1.86651 -33.09960 40810 ft 485 kts 26°
2026-04-17 17:25 -1.80693 -33.06801 40813 ft 485 kts 26°
2026-04-17 17:25 -1.74733 -33.03642 40809 ft 485 kts 26°
2026-04-17 17:26 -1.68773 -33.00483 40809 ft 485 kts 26°
2026-04-17 17:26 -1.62807 -32.97320 40810 ft 485 kts 26°
2026-04-17 17:27 -1.56848 -32.94162 40810 ft 485 kts 26°
2026-04-17 17:27 -1.50894 -32.91006 40809 ft 484 kts 26°
2026-04-17 17:28 -1.44943 -32.87852 40810 ft 484 kts 26°
2026-04-17 17:28 -1.38983 -32.84694 40810 ft 486 kts 26°
2026-04-17 17:29 -1.33011 -32.81533 40809 ft 486 kts 26°
2026-04-17 17:29 -1.27033 -32.78370 40811 ft 486 kts 26°
2026-04-17 17:30 -1.21060 -32.75208 40810 ft 486 kts 26°
2026-04-17 17:30 -1.15087 -32.72045 40807 ft 486 kts 26°
2026-04-17 17:31 -1.09117 -32.68886 40808 ft 486 kts 26°
2026-04-17 17:31 -1.03141 -32.65724 40807 ft 486 kts 26°
2026-04-17 17:32 -0.97170 -32.62565 40805 ft 486 kts 26°
2026-04-17 17:32 -0.91202 -32.59407 40805 ft 485 kts 26°
2026-04-17 17:33 -0.85241 -32.56254 40804 ft 485 kts 26°
2026-04-17 17:33 -0.79279 -32.53099 40804 ft 485 kts 26°
2026-04-17 17:34 -0.73322 -32.49948 40808 ft 485 kts 26°
2026-04-17 17:34 -0.68369 -32.47328 40808 ft 485 kts 26°
2026-04-17 17:35 -0.62407 -32.44174 40805 ft 485 kts 27°
2026-04-17 17:35 -0.56436 -32.41016 40804 ft 486 kts 27°
2026-04-17 17:36 -0.50456 -32.37852 40805 ft 486 kts 27°
2026-04-17 17:36 -0.44475 -32.34688 40803 ft 486 kts 27°
2026-04-17 17:37 -0.38486 -32.31520 40802 ft 488 kts 26°
2026-04-17 17:37 -0.32487 -32.28347 40805 ft 488 kts 26°
2026-04-17 17:38 -0.26483 -32.25171 40802 ft 488 kts 26°
2026-04-17 17:38 -0.20517 -32.22016 40800 ft 488 kts 27°
2026-04-17 17:39 -0.14514 -32.18841 40802 ft 488 kts 27°
2026-04-17 17:39 -0.08512 -32.15666 40803 ft 488 kts 27°
2026-04-17 17:40 -0.02507 -32.12490 40801 ft 488 kts 27°
2026-04-17 17:40 0.03501 -32.09311 40805 ft 490 kts 26°
2026-04-17 17:41 0.09543 -32.06117 40805 ft 491 kts 26°
2026-04-17 17:41 0.15575 -32.02926 40801 ft 490 kts 26°
2026-04-17 17:42 0.21600 -31.99739 40804 ft 490 kts 26°
2026-04-17 17:42 0.27620 -31.96555 40801 ft 490 kts 26°
2026-04-17 17:43 0.33641 -31.93370 40799 ft 490 kts 26°
2026-04-17 17:43 0.39648 -31.90193 40802 ft 493 kts 26°
2026-04-17 17:44 0.45716 -31.86984 40803 ft 494 kts 26°
2026-04-17 17:44 0.51786 -31.83775 40801 ft 494 kts 26°
2026-04-17 17:45 0.57862 -31.80562 40802 ft 494 kts 26°
2026-04-17 17:45 0.63925 -31.77357 40801 ft 493 kts 26°
2026-04-17 17:47 0.68136 -31.75130 40802 ft 492 kts 26°
2026-04-17 17:47 0.74189 -31.71929 40801 ft 492 kts 26°
2026-04-17 17:48 0.80246 -31.68727 40802 ft 492 kts 26°
2026-04-17 17:48 0.86299 -31.65526 40801 ft 492 kts 26°
2026-04-17 17:49 0.92351 -31.62326 40795 ft 492 kts 26°
2026-04-17 17:49 0.98404 -31.59126 40795 ft 492 kts 25°
2026-04-17 17:50 1.04473 -31.55916 40800 ft 494 kts 25°
2026-04-17 17:50 1.10557 -31.52699 40799 ft 495 kts 25°
2026-04-17 17:51 1.16644 -31.49480 40799 ft 495 kts 25°
2026-04-17 17:51 1.22724 -31.46264 40799 ft 495 kts 25°
2026-04-17 17:52 1.28809 -31.43046 40796 ft 495 kts 25°
2026-04-17 17:52 1.34894 -31.39827 40796 ft 495 kts 25°
2026-04-17 17:53 1.40978 -31.36608 40798 ft 495 kts 25°
2026-04-17 17:53 1.47064 -31.33389 40799 ft 495 kts 25°
2026-04-17 17:54 1.53147 -31.30171 40800 ft 495 kts 25°
2026-04-17 17:54 1.59231 -31.26952 40798 ft 495 kts 25°
2026-04-17 17:55 1.65317 -31.23732 40797 ft 495 kts 25°
2026-04-17 17:55 1.71394 -31.20516 40793 ft 494 kts 25°
2026-04-17 17:56 1.77469 -31.17301 40796 ft 494 kts 25°
2026-04-17 17:56 1.83544 -31.14087 40796 ft 494 kts 25°
2026-04-17 17:57 1.89578 -31.10893 40799 ft 494 kts 25°
2026-04-17 17:57 1.95651 -31.07678 40799 ft 494 kts 25°
2026-04-17 17:58 2.01762 -31.04444 40796 ft 494 kts 25°
2026-04-17 17:58 2.07797 -31.01249 40796 ft 494 kts 25°
2026-04-17 17:59 2.13867 -30.98035 40796 ft 494 kts 25°
2026-04-17 17:59 2.19936 -30.94822 40795 ft 494 kts 25°
2026-04-17 18:00 2.26003 -30.91609 40794 ft 493 kts 25°
2026-04-17 18:00 2.32072 -30.88394 40796 ft 494 kts 25°
2026-04-17 18:01 2.38150 -30.85173 40798 ft 495 kts 25°
2026-04-17 18:01 2.44234 -30.81949 40796 ft 495 kts 25°
2026-04-17 18:02 2.50318 -30.78725 40796 ft 495 kts 25°
2026-04-17 18:02 2.56403 -30.75500 40796 ft 495 kts 25°
2026-04-17 18:03 2.62489 -30.72274 40796 ft 495 kts 25°
2026-04-17 18:03 2.68574 -30.69048 40796 ft 495 kts 25°
2026-04-17 18:04 2.74660 -30.65821 40796 ft 495 kts 25°
2026-04-17 18:04 2.80743 -30.62596 40796 ft 495 kts 25°
2026-04-17 18:05 2.86828 -30.59369 40796 ft 495 kts 25°
2026-04-17 18:05 2.92908 -30.56144 40796 ft 495 kts 25°
2026-04-17 18:06 2.98989 -30.52919 40796 ft 495 kts 25°
2026-04-17 18:06 3.05070 -30.49693 40796 ft 495 kts 25°
2026-04-17 18:07 3.11157 -30.46463 40796 ft 495 kts 25°
2026-04-17 18:07 3.17241 -30.43235 40796 ft 495 kts 25°
2026-04-17 18:08 3.23319 -30.40009 40797 ft 495 kts 25°
2026-04-17 18:08 3.29363 -30.36801 40796 ft 494 kts 25°
2026-04-17 18:09 3.35484 -30.33551 40796 ft 495 kts 25°
2026-04-17 18:09 3.41531 -30.30341 40796 ft 495 kts 25°
2026-04-17 18:10 3.47658 -30.27087 40796 ft 495 kts 25°
2026-04-17 18:10 3.53742 -30.23856 40796 ft 495 kts 25°
2026-04-17 18:11 3.59828 -30.20624 40799 ft 495 kts 25°
2026-04-17 18:11 3.65875 -30.17411 40799 ft 496 kts 25°
2026-04-17 18:12 3.72013 -30.14150 40798 ft 496 kts 25°
2026-04-17 18:12 3.78109 -30.10910 40798 ft 496 kts 25°
2026-04-17 18:13 3.84206 -30.07670 40799 ft 496 kts 25°
2026-04-17 18:13 3.90301 -30.04430 40799 ft 496 kts 25°
2026-04-17 18:14 3.96400 -30.01187 40805 ft 496 kts 25°
2026-04-17 18:14 4.02459 -29.97965 40801 ft 497 kts 24°
2026-04-17 18:15 4.08567 -29.94714 40802 ft 497 kts 24°
2026-04-17 18:15 4.14680 -29.91455 40801 ft 497 kts 25°
2026-04-17 18:16 4.20788 -29.88199 40801 ft 497 kts 25°
2026-04-17 18:16 4.26893 -29.84946 40804 ft 497 kts 24°
2026-04-17 18:17 4.33004 -29.81688 40807 ft 498 kts 24°
2026-04-17 18:17 4.42177 -29.76798 40807 ft 498 kts 24°
2026-04-17 18:18 4.48292 -29.73537 40807 ft 498 kts 24°
2026-04-17 18:18 4.54412 -29.70273 40810 ft 498 kts 24°
2026-04-17 18:19 4.60530 -29.67009 40809 ft 498 kts 24°
2026-04-17 18:19 4.66644 -29.63747 40810 ft 498 kts 24°
2026-04-17 18:20 4.71723 -29.61036 40809 ft 497 kts 24°
2026-04-17 18:20 4.77829 -29.57777 40810 ft 497 kts 24°
2026-04-17 18:21 4.83936 -29.54517 40812 ft 497 kts 24°
2026-04-17 18:21 4.90046 -29.51254 40813 ft 497 kts 24°
2026-04-17 18:22 4.96148 -29.47995 40812 ft 497 kts 24°
2026-04-17 18:22 5.02253 -29.44733 40809 ft 496 kts 24°
2026-04-17 18:23 5.08345 -29.41478 40814 ft 496 kts 24°
2026-04-17 18:23 5.14438 -29.38222 40814 ft 496 kts 24°
2026-04-17 18:24 5.20525 -29.34968 40816 ft 496 kts 24°
2026-04-17 18:24 5.26614 -29.31713 40812 ft 496 kts 24°
2026-04-17 18:25 5.32705 -29.28455 40818 ft 496 kts 24°
2026-04-17 18:25 5.38793 -29.25198 40816 ft 496 kts 24°
2026-04-17 18:26 5.44879 -29.21942 40816 ft 496 kts 24°
2026-04-17 18:26 5.50965 -29.18686 40816 ft 496 kts 24°
2026-04-17 18:27 5.57051 -29.15428 40814 ft 496 kts 24°
2026-04-17 18:27 5.63139 -29.12169 40816 ft 496 kts 24°
2026-04-17 18:28 5.69230 -29.08906 40817 ft 496 kts 23°
2026-04-17 18:28 5.75314 -29.05647 40821 ft 496 kts 23°
2026-04-17 18:29 5.81403 -29.02385 40821 ft 496 kts 24°
2026-04-17 18:29 5.87489 -28.99123 40818 ft 496 kts 24°
2026-04-17 18:30 5.93573 -28.95862 40821 ft 496 kts 24°
2026-04-17 18:30 5.99656 -28.92600 40830 ft 496 kts 23°
2026-04-17 18:31 6.05742 -28.89336 40821 ft 496 kts 23°
2026-04-17 18:31 6.11830 -28.86070 40823 ft 496 kts 23°
2026-04-17 18:32 6.17914 -28.82805 40826 ft 496 kts 23°
2026-04-17 18:32 6.24000 -28.79539 40823 ft 496 kts 23°
2026-04-17 18:33 6.30086 -28.76271 40824 ft 496 kts 23°
2026-04-17 18:33 6.36170 -28.73004 40823 ft 496 kts 23°
2026-04-17 18:34 6.42256 -28.69734 40825 ft 496 kts 23°
2026-04-17 18:34 6.48340 -28.66465 40827 ft 496 kts 23°
2026-04-17 18:35 6.54426 -28.63194 40824 ft 496 kts 23°
2026-04-17 18:35 6.60518 -28.59919 40830 ft 496 kts 23°
2026-04-17 18:36 6.66613 -28.56641 40824 ft 496 kts 23°
2026-04-17 18:36 6.72694 -28.53369 40829 ft 495 kts 23°
2026-04-17 18:37 6.78728 -28.50122 40829 ft 495 kts 23°
2026-04-17 18:37 6.84801 -28.46854 40828 ft 495 kts 23°
2026-04-17 18:38 6.90874 -28.43584 40829 ft 495 kts 23°
2026-04-17 18:38 6.96946 -28.40315 40829 ft 495 kts 23°
2026-04-17 18:39 7.03020 -28.37042 40835 ft 495 kts 23°
2026-04-17 18:39 7.09085 -28.33774 40829 ft 494 kts 23°
2026-04-17 18:40 7.15147 -28.30506 40829 ft 494 kts 23°
2026-04-17 18:40 7.21206 -28.27239 40830 ft 494 kts 23°
2026-04-17 18:41 7.27266 -28.23971 40834 ft 494 kts 23°
2026-04-17 18:41 7.33326 -28.20702 40834 ft 494 kts 23°
2026-04-17 18:42 7.39382 -28.17433 40836 ft 493 kts 23°
2026-04-17 18:42 7.45431 -28.14166 40835 ft 493 kts 23°
2026-04-17 18:43 7.51473 -28.10902 40837 ft 492 kts 23°
2026-04-17 18:43 7.57512 -28.07639 40838 ft 492 kts 23°
2026-04-17 18:44 7.63557 -28.04373 40837 ft 493 kts 23°
2026-04-17 18:44 7.69572 -28.01121 40837 ft 493 kts 23°
2026-04-17 18:45 7.75655 -27.97830 40837 ft 492 kts 23°
2026-04-17 18:45 7.81661 -27.94581 40840 ft 492 kts 23°
2026-04-17 18:46 7.87692 -27.91317 40840 ft 492 kts 23°
2026-04-17 18:46 7.93723 -27.88052 40840 ft 492 kts 23°
2026-04-17 18:47 7.99754 -27.84786 40840 ft 492 kts 23°
2026-04-17 18:47 8.05788 -27.81518 40844 ft 492 kts 23°
2026-04-17 18:48 8.11810 -27.78254 40840 ft 491 kts 23°
2026-04-17 18:48 8.17833 -27.74989 40840 ft 491 kts 23°
2026-04-17 18:49 8.23857 -27.71722 40842 ft 491 kts 23°
2026-04-17 18:49 8.29877 -27.68457 40842 ft 491 kts 23°
2026-04-17 18:50 8.35901 -27.65187 40842 ft 491 kts 23°
2026-04-17 18:50 8.41922 -27.61919 40845 ft 491 kts 23°
2026-04-17 18:51 8.47933 -27.58654 40842 ft 491 kts 23°
2026-04-17 18:51 8.53943 -27.55389 40842 ft 490 kts 23°
2026-04-17 18:52 8.59957 -27.52121 40842 ft 490 kts 23°
2026-04-17 18:52 8.65970 -27.48852 40848 ft 490 kts 23°
2026-04-17 18:53 8.71981 -27.45584 40848 ft 491 kts 23°
2026-04-17 18:53 8.77997 -27.42311 40849 ft 491 kts 23°
2026-04-17 18:54 8.83974 -27.39058 40848 ft 491 kts 23°
2026-04-17 18:54 8.90032 -27.35760 40851 ft 491 kts 23°
2026-04-17 18:55 8.96015 -27.32503 40851 ft 491 kts 22°
2026-04-17 18:55 9.02035 -27.29226 40851 ft 491 kts 23°
2026-04-17 18:56 9.08050 -27.25944 40851 ft 491 kts 23°
2026-04-17 18:56 9.14069 -27.22660 40851 ft 492 kts 22°
2026-04-17 18:57 9.20142 -27.19348 40855 ft 492 kts 22°
2026-04-17 18:57 9.26169 -27.16058 40853 ft 492 kts 22°
2026-04-17 18:58 9.32161 -27.12788 40854 ft 492 kts 23°
2026-04-17 18:58 9.38193 -27.09493 40853 ft 493 kts 23°
2026-04-17 18:59 9.44227 -27.06197 40863 ft 493 kts 22°
2026-04-17 18:59 9.50260 -27.02899 40853 ft 493 kts 22°
2026-04-17 19:00 9.56300 -26.99597 40860 ft 493 kts 22°
2026-04-17 19:00 9.62339 -26.96294 40855 ft 493 kts 22°
2026-04-17 19:01 9.68377 -26.92989 40862 ft 493 kts 22°
2026-04-17 19:01 9.74455 -26.89662 40854 ft 493 kts 22°
2026-04-17 19:02 9.79476 -26.86912 40857 ft 493 kts 22°
2026-04-17 19:02 9.85515 -26.83603 40859 ft 494 kts 22°
2026-04-17 19:03 9.91553 -26.80294 40856 ft 494 kts 22°
2026-04-17 19:03 9.97598 -26.76979 40854 ft 494 kts 22°
2026-04-17 19:04 10.03640 -26.73664 40851 ft 494 kts 22°
2026-04-17 19:04 10.09683 -26.70348 40860 ft 494 kts 22°
2026-04-17 19:05 10.15725 -26.67030 40856 ft 494 kts 22°
2026-04-17 19:05 10.21770 -26.63710 40859 ft 494 kts 22°
2026-04-17 19:06 10.27812 -26.60390 40862 ft 494 kts 22°
2026-04-17 19:06 10.33858 -26.57066 40862 ft 494 kts 22°
2026-04-17 19:07 10.39905 -26.53741 40860 ft 494 kts 22°
2026-04-17 19:07 10.45955 -26.50412 40863 ft 494 kts 22°
2026-04-17 19:08 10.52005 -26.47081 40864 ft 495 kts 22°
2026-04-17 19:08 10.58063 -26.43745 40865 ft 495 kts 22°
2026-04-17 19:09 10.64122 -26.40406 40865 ft 495 kts 22°
2026-04-17 19:09 10.70136 -26.37091 40867 ft 495 kts 22°
2026-04-17 19:10 10.76192 -26.33751 40866 ft 495 kts 22°
2026-04-17 19:10 10.82252 -26.30408 40872 ft 495 kts 22°
2026-04-17 19:11 10.88313 -26.27062 40870 ft 496 kts 22°
2026-04-17 19:11 10.94385 -26.23709 40868 ft 497 kts 22°
2026-04-17 19:12 11.00461 -26.20352 40871 ft 497 kts 22°
2026-04-17 19:12 11.06538 -26.16992 40871 ft 497 kts 22°
2026-04-17 19:13 11.12614 -26.13632 40872 ft 497 kts 22°
2026-04-17 19:13 11.18693 -26.10268 40879 ft 497 kts 22°
2026-04-17 19:14 11.24773 -26.06903 40870 ft 498 kts 22°
2026-04-17 19:14 11.30856 -26.03534 40869 ft 498 kts 22°
2026-04-17 19:15 11.36939 -26.00163 40870 ft 498 kts 22°
2026-04-17 19:15 11.43024 -25.96790 40874 ft 498 kts 22°
2026-04-17 19:16 11.49109 -25.93414 40872 ft 498 kts 22°
2026-04-17 19:16 11.55196 -25.90036 40877 ft 498 kts 22°
2026-04-17 19:17 11.61290 -25.86653 40876 ft 499 kts 22°
2026-04-17 19:17 11.67387 -25.83267 40876 ft 499 kts 22°
2026-04-17 19:18 11.73479 -25.79880 40876 ft 499 kts 22°
2026-04-17 19:18 11.79576 -25.76490 40875 ft 499 kts 22°
2026-04-17 19:19 11.85672 -25.73099 40876 ft 499 kts 22°
2026-04-17 19:19 11.91774 -25.69702 40865 ft 499 kts 22°
2026-04-17 19:20 11.97871 -25.66307 40882 ft 500 kts 22°
2026-04-17 19:20 12.03979 -25.62904 40865 ft 500 kts 22°
2026-04-17 19:21 12.10087 -25.59499 40872 ft 500 kts 22°
2026-04-17 19:21 12.16191 -25.56094 40870 ft 500 kts 22°
2026-04-17 19:22 12.22306 -25.52681 40899 ft 500 kts 22°
2026-04-17 19:22 12.28417 -25.49269 40880 ft 501 kts 22°
2026-04-17 19:23 12.37604 -25.44136 40880 ft 501 kts 22°
2026-04-17 19:24 12.43723 -25.40714 40876 ft 501 kts 22°
2026-04-17 19:24 12.49843 -25.37291 40877 ft 501 kts 22°
2026-04-17 19:25 12.55965 -25.33864 40878 ft 501 kts 22°
2026-04-17 19:25 12.62090 -25.30434 40886 ft 502 kts 22°
2026-04-17 19:26 12.68220 -25.27000 40884 ft 502 kts 22°
2026-04-17 19:26 12.74356 -25.23559 40882 ft 503 kts 22°
2026-04-17 19:27 12.80487 -25.20120 40881 ft 502 kts 22°
2026-04-17 19:27 12.86618 -25.16678 40884 ft 502 kts 22°
2026-04-17 19:28 12.92746 -25.13237 40902 ft 503 kts 22°
2026-04-17 19:28 12.98886 -25.09787 40887 ft 503 kts 22°
2026-04-17 19:29 13.05024 -25.06336 40887 ft 503 kts 22°
2026-04-17 19:29 13.11160 -25.02884 40887 ft 503 kts 22°
2026-04-17 19:30 13.17304 -24.99426 40885 ft 504 kts 22°
2026-04-17 19:30 13.23451 -24.95964 40887 ft 504 kts 22°
2026-04-17 19:31 13.29599 -24.92499 40887 ft 504 kts 22°
2026-04-17 19:31 13.35745 -24.89033 40886 ft 504 kts 22°
2026-04-17 19:32 13.41888 -24.85568 40886 ft 504 kts 22°
2026-04-17 19:32 13.48037 -24.82096 40887 ft 504 kts 22°
2026-04-17 19:33 13.54181 -24.78626 40887 ft 504 kts 22°
2026-04-17 19:33 13.60327 -24.75152 40896 ft 504 kts 22°
2026-04-17 19:34 13.66471 -24.71677 40887 ft 504 kts 22°
2026-04-17 19:34 13.72615 -24.68201 40886 ft 504 kts 22°
2026-04-17 19:35 13.78769 -24.64717 40887 ft 505 kts 22°
2026-04-17 19:35 13.84922 -24.61231 40889 ft 505 kts 22°
2026-04-17 19:36 13.91073 -24.57744 40893 ft 505 kts 22°
2026-04-17 19:36 13.97224 -24.54253 40910 ft 505 kts 22°
2026-04-17 19:37 14.03377 -24.50758 40890 ft 505 kts 22°
2026-04-17 19:37 14.09530 -24.47265 40890 ft 505 kts 22°
2026-04-17 19:38 14.15680 -24.43771 40887 ft 505 kts 22°
2026-04-17 19:38 14.21798 -24.40201 40896 ft 508 kts 25°
2026-04-17 19:39 14.27812 -24.36372 40895 ft 508 kts 24°
2026-04-17 19:39 14.33881 -24.32652 40900 ft 507 kts 23°
2026-04-17 19:40 14.39974 -24.28985 40902 ft 507 kts 23°
2026-04-17 19:40 14.46077 -24.25332 40900 ft 507 kts 23°
2026-04-17 19:41 14.52181 -24.21682 40902 ft 507 kts 23°
2026-04-17 19:41 14.58284 -24.18032 40884 ft 507 kts 23°
2026-04-17 19:42 14.64386 -24.14381 40888 ft 507 kts 23°
2026-04-17 19:42 14.70459 -24.10742 40205 ft 503 kts 22°
2026-04-17 19:42 14.73495 -24.08925 39442 ft 505 kts 22°
2026-04-17 19:43 14.76539 -24.07103 38692 ft 508 kts 22°
2026-04-17 19:43 14.79606 -24.05267 37841 ft 510 kts 22°
2026-04-17 19:43 14.82684 -24.03422 36948 ft 513 kts 22°
2026-04-17 19:43 14.85776 -24.01568 36040 ft 512 kts 23°
2026-04-17 19:44 14.88845 -23.99723 34762 ft 510 kts 23°
2026-04-17 19:44 14.90879 -23.98502 33853 ft 511 kts 23°
2026-04-17 19:44 14.93965 -23.96651 32537 ft 515 kts 22°
2026-04-17 19:44 14.97055 -23.94794 31948 ft 511 kts 22°
2026-04-17 19:45 15.00112 -23.92953 31406 ft 506 kts 22°
2026-04-17 19:45 15.03136 -23.91133 30864 ft 501 kts 22°
2026-04-17 19:45 15.06137 -23.89328 30319 ft 497 kts 22°
2026-04-17 19:45 15.09110 -23.87540 29736 ft 492 kts 21°
2026-04-17 19:46 15.12057 -23.85767 29169 ft 487 kts 22°
2026-04-17 19:46 15.14966 -23.84016 28638 ft 481 kts 22°
2026-04-17 19:46 15.17847 -23.82282 28116 ft 476 kts 22°
2026-04-17 19:46 15.20693 -23.80569 27586 ft 471 kts 22°
2026-04-17 19:47 15.23510 -23.78873 27077 ft 466 kts 22°
2026-04-17 19:47 15.26305 -23.77189 26559 ft 462 kts 22°
2026-04-17 19:47 15.29072 -23.75523 26050 ft 458 kts 23°
2026-04-17 19:47 15.31820 -23.73867 25536 ft 455 kts 23°
2026-04-17 19:48 15.34546 -23.72224 25008 ft 452 kts 23°
2026-04-17 19:48 15.37255 -23.70591 24508 ft 450 kts 24°
2026-04-17 19:48 15.39954 -23.68963 23977 ft 448 kts 24°
2026-04-17 19:48 15.42639 -23.67344 23459 ft 446 kts 24°
2026-04-17 19:49 15.45311 -23.65731 22867 ft 443 kts 25°
2026-04-17 19:49 15.47963 -23.64129 22333 ft 439 kts 25°
2026-04-17 19:49 15.50584 -23.62545 21818 ft 435 kts 25°
2026-04-17 19:49 15.53187 -23.60972 21296 ft 431 kts 25°
2026-04-17 19:50 15.55767 -23.59413 20788 ft 427 kts 26°
2026-04-17 19:50 15.58328 -23.57864 20275 ft 424 kts 26°
2026-04-17 19:50 15.60871 -23.56327 19768 ft 421 kts 26°
2026-04-17 19:50 15.63396 -23.54800 19260 ft 419 kts 27°
2026-04-17 19:51 15.65906 -23.53281 18744 ft 416 kts 27°
2026-04-17 19:51 15.68400 -23.51772 18260 ft 414 kts 27°
2026-04-17 19:51 15.70880 -23.50270 17699 ft 412 kts 28°
2026-04-17 19:51 15.73341 -23.48779 17202 ft 408 kts 28°
2026-04-17 19:52 15.75782 -23.47300 16688 ft 404 kts 28°
2026-04-17 19:52 15.78192 -23.45839 16201 ft 399 kts 28°
2026-04-17 19:52 15.80582 -23.44391 15715 ft 395 kts 28°
2026-04-17 19:52 15.82943 -23.42959 15235 ft 391 kts 29°
2026-04-17 19:53 15.85284 -23.41540 14766 ft 387 kts 29°
2026-04-17 19:53 15.87601 -23.40134 14289 ft 384 kts 30°
2026-04-17 19:53 15.89892 -23.38744 13824 ft 380 kts 30°
2026-04-17 19:53 15.92162 -23.37366 13328 ft 376 kts 30°
2026-04-17 19:54 15.94405 -23.36004 12843 ft 371 kts 30°
2026-04-17 19:54 15.96615 -23.34661 12381 ft 365 kts 30°
2026-04-17 19:54 15.98794 -23.33337 11934 ft 360 kts 30°
2026-04-17 19:54 16.00942 -23.32032 11483 ft 355 kts 30°
2026-04-17 19:55 16.03054 -23.30748 11171 ft 346 kts 30°
2026-04-17 19:55 16.05088 -23.29512 11045 ft 332 kts 30°
2026-04-17 19:55 16.07039 -23.28326 10916 ft 318 kts 31°
2026-04-17 19:55 16.08914 -23.27185 10734 ft 308 kts 31°
2026-04-17 19:56 16.10750 -23.26068 10412 ft 304 kts 31°
2026-04-17 19:56 16.12562 -23.24965 10093 ft 300 kts 31°
2026-04-17 19:56 16.14349 -23.23877 9800 ft 296 kts 31°
2026-04-17 19:56 16.16165 -23.22771 9473 ft 308 kts 31°
2026-04-17 19:57 16.18016 -23.21643 9205 ft 307 kts 31°
2026-04-17 19:57 16.19855 -23.20522 8855 ft 306 kts 31°
2026-04-17 19:57 16.21690 -23.19404 8527 ft 304 kts 31°
2026-04-17 19:57 16.23501 -23.18301 8224 ft 300 kts 30°
2026-04-17 19:58 16.25299 -23.17205 7906 ft 299 kts 30°
2026-04-17 19:58 16.27084 -23.16117 7595 ft 295 kts 30°
2026-04-17 19:58 16.28847 -23.15042 7288 ft 293 kts 30°
2026-04-17 19:58 16.30598 -23.13973 6992 ft 291 kts 29°
2026-04-17 19:59 16.32331 -23.12916 6685 ft 287 kts 29°
2026-04-17 19:59 16.34050 -23.11867 6383 ft 285 kts 29°
2026-04-17 19:59 16.35755 -23.10827 6080 ft 283 kts 29°
2026-04-17 19:59 16.37443 -23.09797 5825 ft 281 kts 28°
2026-04-17 20:00 16.39127 -23.08769 5555 ft 280 kts 28°
2026-04-17 20:00 16.40802 -23.07748 5244 ft 278 kts 27°
2026-04-17 20:00 16.42469 -23.06727 4959 ft 277 kts 27°
2026-04-17 20:00 16.44132 -23.05712 4655 ft 276 kts 27°
2026-04-17 20:01 16.45786 -23.04703 4332 ft 275 kts 27°
2026-04-17 20:01 16.47430 -23.03698 4033 ft 272 kts 27°
2026-04-17 20:01 16.49011 -23.02624 3728 ft 272 kts 36°
2026-04-17 20:01 16.50353 -23.01236 3447 ft 272 kts 46°
2026-04-17 20:02 16.51521 -22.99694 3168 ft 271 kts 55°
2026-04-17 20:02 16.52428 -22.97985 2863 ft 267 kts 60°
2026-04-17 20:02 16.53253 -22.96292 2561 ft 252 kts 58°
2026-04-17 20:02 16.54448 -22.95142 2267 ft 226 kts 22°
2026-04-17 20:03 16.55879 -22.94643 2019 ft 208 kts
2026-04-17 20:03 16.57220 -22.94616 1990 ft 184 kts 355°
2026-04-17 20:03 16.58434 -22.94687 1995 ft 165 kts 358°
2026-04-17 20:03 16.59519 -22.94706 1981 ft 147 kts 359°
2026-04-17 20:04 16.60519 -22.94710 1982 ft 142 kts
2026-04-17 20:04 16.61505 -22.94711 1985 ft 141 kts
2026-04-17 20:04 16.62490 -22.94718 1990 ft 142 kts 358°
2026-04-17 20:04 16.63468 -22.94732 1889 ft 138 kts 360°
2026-04-17 20:05 16.64402 -22.94748 1716 ft 131 kts 360°
2026-04-17 20:05 16.65288 -22.94761 1533 ft 124 kts 359°
2026-04-17 20:05 16.66154 -22.94774 1372 ft 122 kts 360°
2026-04-17 20:05 16.66990 -22.94786 1221 ft 123 kts
2026-04-17 20:06 16.67850 -22.94800 1043 ft 124 kts
2026-04-17 20:06 16.68727 -22.94843 871 ft 124 kts 359°
2026-04-17 20:06 16.69572 -22.94865 744 ft 120 kts 358°
2026-04-17 20:06 16.70390 -22.94874 556 ft 120 kts
2026-04-17 20:07 16.71227 -22.94883 357 ft 118 kts 354°
2026-04-17 20:07 16.72047 -22.94890 267 ft 120 kts 359°
2026-04-17 20:07 16.72895 -22.94898 206 ft 122 kts
2026-04-17 20:07 16.73561 -22.94894 190 ft 46 kts
2026-04-17 20:08 16.73798 -22.94896 184 ft 42 kts 359°
2026-04-17 20:08 16.74046 -22.94898 191 ft 30 kts 360°
2026-04-17 20:08 16.74189 -22.94888 184 ft 16 kts 26°
2026-04-17 20:08 16.74262 -22.94809 202 ft 16 kts 52°
2026-04-17 20:09 16.74283 -22.94718 199 ft 12 kts 142°
2026-04-17 20:09 16.74204 -22.94701 202 ft 13 kts 176°
2026-04-17 20:09 16.74100 -22.94698 187 ft 17 kts 180°
2026-04-17 20:09 16.73975 -22.94700 195 ft 19 kts 180°
2026-04-17 20:10 16.73830 -22.94698 195 ft 22 kts 179°
2026-04-17 20:10 16.73708 -22.94696 193 ft 14 kts 179°
2026-04-17 20:10 16.73624 -22.94652 203 ft 15 kts 120°
2026-04-17 20:10 16.73563 -22.94593 201 ft 10 kts 158°
2026-04-17 20:11 16.73488 -22.94594 179 ft 12 kts 184°
2026-04-17 20:11 16.73406 -22.94595 192 ft 13 kts 180°
2026-04-17 20:11 16.73372 -22.94578 204 ft 3 kts 111°
2026-04-17 20:11 16.73366 -22.94543 200 ft 6 kts 95°
2026-04-17 20:12 16.73365 -22.94503 187 ft 0 kts 88°